Regional Weather Roundup
Issued by NWS

Home | Current Version | Previous Version | Text Only | Print | Product List | Glossary On
Versions: 1 2 3 4 5 6 7 8 9 10 11 12 13 14 15 16 17 18 19 20 21 22 23 24 25 26 27 28 29 30 31 32 33 34 35 36 37 38 39 40 41 42 43 44 45 46 47 48 49 50
000
ASUS42 KFFC 190410
RWRGA
WEATHER ROUNDUP FOR GEORGIA
NATIONAL WEATHER SERVICE PEACHTREE CITY GA
1100 PM EST SUN FEB 18 2018

NOTE: "FAIR" INDICATES FEW OR NO CLOUDS BELOW 12,000 FEET WITH NO
SIGNIFICANT WEATHER AND/OR OBSTRUCTIONS TO VISIBILITY.

* = USE WITH CAUTION. THE STATIONS MARKED WITH AN ASTERISK MAY NOT
REPORT WEATHER SUCH AS PRECIPITATION, FOG, OR THUNDER AND ARE NOT
QUALITY CONTROLLED BY NWS.

THE REMARK "TC" DENOTES TEMPERATURE READING IN DEGREES CELSIUS.

GAZ001>058-190500-
NORTH GEORGIA

CITY           SKY/WX    TMP DP  RH WIND       PRES   REMARKS
ATLANTA        CLOUDY    60  58  92 E6        30.28S
ATHENS         CLOUDY    57  57 100 E5        30.30S
CHAMBLEE       CLOUDY    58  56  93 VRB3      30.28F
PEACHTREE CITY CLOUDY    60  58  92 SE5       30.28R
ROME           CLOUDY    60  59  96 SE6       30.24F
WEST ATLANTA   CLOUDY    60  59  96 NE3       30.27S
GAINESVILLE    LGT RAIN  56  56 100 E5        30.33R FOG
CARTERSVILLE   CLOUDY    58  58 100 VRB6      30.26F


CITY           SKY/WX    TMP DP  RH WIND       PRES   REMARKS
DALTON*        DRIZZLE   55  55 100 S5        30.27S
LAWRENCEVILLE* LGT RAIN  57  56  96 E7          N/A
MARIETTA       CLOUDY    58  56  94 E3        30.28S
KENNESAW*      CLOUDY    58  57  97 E8        30.28S
CANTON*        DRIZZLE   59  59 100 E3        30.30S
BLAIRSVILLE*   CLOUDY    55  49  80 SE8       30.29F
$$

GAZ059>098-102>109-190500-
CENTRAL GEORGIA

CITY           SKY/WX    TMP DP  RH WIND       PRES   REMARKS
AUGUSTA-BUSH   CLOUDY    58  56  93 E6        30.33S
AUGUSTA-DANIEL CLOUDY    59  54  83 SE9       30.34S
COLUMBUS       MOCLDY    63  59  87 E6        30.24S
MACON          CLOUDY    60  59  96 E3        30.28S
ROBINS AFB     CLOUDY    62  60  94 CALM      30.27S


CITY           SKY/WX    TMP DP  RH WIND       PRES   REMARKS
LAGRANGE*      CLOUDY    60  60  99 CALM      30.25F
SYLVANIA*      CLOUDY    62  58  88 SE3       30.34S
MILLEDGEVILLE* CLOUDY    61  59  94 E6        30.30S
$$

GAZ099>101-110>166-190500-
SOUTH GEORGIA

CITY           SKY/WX    TMP DP  RH WIND       PRES   REMARKS
SAVANNAH       CLOUDY    60  56  86 E6        30.33F
VALDOSTA       FAIR      69  62  78 SE9       30.27R
ALMA           CLOUDY    64  60  87 E9        30.30S
ST SIMONS      CLOUDY    62  59  90 NE7       30.32R
FT STEWART     FAIR      60  57  89 E5        30.31S
ALBANY         FAIR      69  64  84 SE5       30.28R
HUNTER AFB     FAIR      60  55  84 NE3       30.30F
MOODY AFB      FAIR      67  64  87 SE8       30.27R
BRUNSWICK      CLOUDY    61  57  88 CALM      30.33S


CITY           SKY/WX    TMP DP  RH WIND       PRES   REMARKS
BAINBRIDGE*    FAIR      72  70  94 S3        30.25R
MOULTRIE*      FAIR      68  63  83 E3        30.27S
VIDALIA*       CLOUDY    63  61  94 SE3       30.32S
WAYCROSS*      CLOUDY    65  62  90 E12       30.31S
DOUGLAS*       CLOUDY    64  61  88 E8        30.31S
$$




USA.gov is the U.S. government's official web portal to all federal, state and local government web resources and services.